Date String (YYYY-MM-DD hh:mm:ss) UTC,Instrument flags,Ambient pressure (hPa),Sample flow (lpm),Bypass flow (lpm),Sample temperature (°C),Ambient temperature (°C),ASC tube jacket temperature (°C),LED temperature (°C),Box temperature (°C),Sample RH (%),Span deviation,Mass concentration (μg/m³),Mass concentration (μg/m³),Mass concentration (μg/m³)
DateTimeUTC,F1_M11,P_M11,Q1_M11,Q2_M11,T1_M11,T2_M11,T3_M11,T4_M11,T5_M11,U1_M11,ZSPAN_M11,X0_M11,X2_M11,X1_M11
2023-05-06 03:00:00,,0824.7,5.00,0.00,30.5,29.0,00.0,38.9,32.1,08.5,0000.0,0008.75,0003.55,0001.78
2023-05-06 03:01:00,,0824.7,5.01,0.00,30.5,29.0,00.0,38.9,32.1,08.5,0000.0,0008.67,0003.49,0001.77
2023-05-06 03:02:00,,0824.7,5.00,0.00,30.5,29.0,00.0,38.9,32.1,08.5,0000.0,0008.94,0003.54,0001.78
2023-05-06 03:03:00,,0824.7,5.00,0.00,30.5,29.0,00.0,38.9,32.0,08.4,0000.0,0009.02,0003.53,0001.78
2023-05-06 03:04:00,,0824.7,4.99,0.00,30.5,29.0,00.0,38.9,32.1,08.4,0000.0,0009.19,0003.57,0001.81
2023-05-06 03:05:00,,0824.7,5.00,0.00,30.5,29.0,00.0,38.9,32.1,08.4,0000.0,0009.81,0003.53,0001.84
2023-05-06 03:06:00,,0824.7,4.99,0.00,30.5,29.0,00.0,38.9,32.1,08.4,0000.0,0009.90,0003.53,0001.85
2023-05-06 03:07:00,,0824.7,5.00,0.00,30.5,29.0,00.0,38.9,32.0,08.4,0000.0,0010.06,0003.57,0001.87
2023-05-06 03:08:00,,0824.7,5.00,0.00,30.5,29.0,00.0,38.9,32.0,08.3,0000.0,0010.06,0003.58,0001.89
2023-05-06 03:09:00,,0824.7,5.01,0.00,30.5,29.0,00.0,38.9,32.1,08.5,0000.0,0010.12,0003.56,0001.90
2023-05-06 03:10:00,,0824.7,5.00,0.00,30.5,29.0,00.0,38.9,32.0,08.4,0000.0,0010.10,0003.52,0001.89
2023-05-06 03:11:00,,0824.7,5.00,0.00,30.5,29.0,00.0,38.9,32.0,08.4,0000.0,0009.05,0003.52,0001.89
2023-05-06 03:12:00,,0824.7,4.99,0.00,30.5,29.0,00.0,38.9,32.0,08.3,0000.0,0009.04,0003.53,0001.91
2023-05-06 03:13:00,,0824.7,5.00,0.00,30.5,29.0,00.0,38.9,32.1,08.2,0000.0,0009.61,0003.54,0001.91
2023-05-06 03:14:00,,0824.7,5.00,0.00,30.5,29.0,00.0,38.9,32.0,08.2,0000.0,0009.43,0003.54,0001.91
2023-05-06 03:15:00,,0824.8,5.01,0.00,30.5,29.0,00.0,38.9,32.0,08.3,0000.0,0009.38,0003.55,0001.89
2023-05-06 03:16:00,,0824.7,5.00,0.00,30.5,29.0,00.0,38.9,32.1,08.2,0000.0,0008.96,0003.54,0001.86
2023-05-06 03:17:00,,0824.7,5.01,0.00,30.5,29.0,00.0,38.9,32.0,08.2,0000.0,0008.57,0003.56,0001.85
2023-05-06 03:18:00,,0824.8,5.02,0.00,30.5,29.0,00.0,38.9,32.0,08.2,0000.0,0008.39,0003.52,0001.84
2023-05-06 03:19:00,,0824.7,5.00,0.00,30.5,29.0,00.0,38.9,32.0,08.2,0000.0,0008.31,0003.50,0001.82
2023-05-06 03:20:00,,0824.8,5.00,0.00,30.5,29.0,00.0,38.9,32.0,08.3,0000.0,0008.29,0003.49,0001.79
2023-05-06 03:21:00,,0824.8,5.00,0.00,30.5,29.1,00.0,38.9,32.0,08.3,0000.0,0008.39,0003.51,0001.78
2023-05-06 03:22:00,,0824.8,5.00,0.00,30.5,29.1,00.0,38.9,32.0,08.2,0000.0,0008.37,0003.48,0001.79
2023-05-06 03:23:00,,0824.8,5.00,0.00,30.5,29.1,00.0,38.9,32.0,08.3,0000.0,0008.42,0003.48,0001.78
2023-05-06 03:24:00,,0824.8,5.00,0.00,30.5,29.0,00.0,38.9,32.0,08.3,0000.0,0007.59,0003.45,0001.77
2023-05-06 03:25:00,,0824.8,5.00,0.00,30.5,29.0,00.0,38.9,32.0,08.3,0000.0,0007.59,0003.43,0001.77
2023-05-06 03:26:00,,0824.9,5.00,0.00,30.5,29.0,00.0,38.9,32.1,08.2,0000.0,0007.99,0003.43,0001.78
2023-05-06 03:27:00,,0824.9,5.00,0.00,30.5,29.0,00.0,38.9,32.0,08.2,0000.0,0008.58,0003.45,0001.77
2023-05-06 03:28:00,,0824.9,5.00,0.00,30.5,29.0,00.0,38.9,32.0,08.1,0000.0,0008.82,0003.43,0001.75
2023-05-06 03:29:00,,0824.8,5.00,0.00,30.5,29.0,00.0,38.9,32.0,08.1,0000.0,0008.95,0003.43,0001.74
2023-05-06 03:30:00,,0824.9,4.99,0.00,30.5,29.0,00.0,38.9,32.0,08.1,0000.0,0008.97,0003.43,0001.73
2023-05-06 03:31:00,,0824.9,5.00,0.00,30.5,29.0,00.0,38.9,32.1,08.2,0000.0,0008.85,0003.43,0001.74
2023-05-06 03:32:00,,0824.9,5.00,0.00,30.5,29.0,00.0,38.9,32.1,08.2,0000.0,0009.14,0003.44,0001.75
2023-05-06 03:33:00,,0824.9,5.00,0.00,30.5,29.0,00.0,38.9,32.0,08.3,0000.0,0009.25,0003.47,0001.76
2023-05-06 03:34:00,,0824.9,5.00,0.00,30.5,29.0,00.0,38.9,32.1,08.3,0000.0,0009.21,0003.45,0001.76
2023-05-06 03:35:00,,0824.9,5.00,0.00,30.5,29.0,00.0,38.9,32.1,08.2,0000.0,0009.64,0003.42,0001.74
2023-05-06 03:36:00,,0824.8,5.00,0.00,30.5,29.0,00.0,38.9,32.1,08.2,0000.0,0009.84,0003.39,0001.74
2023-05-06 03:37:00,,0824.9,5.00,0.00,30.6,29.0,00.0,38.9,32.1,08.2,0000.0,0009.77,0003.39,0001.74
2023-05-06 03:38:00,,0824.9,5.00,0.00,30.6,29.0,00.0,38.9,32.1,08.1,0000.0,0009.62,0003.34,0001.74
2023-05-06 03:39:00,,0824.9,4.99,0.00,30.6,29.0,00.0,38.9,32.1,08.1,0000.0,0009.58,0003.37,0001.77
2023-05-06 03:40:00,,0824.9,4.99,0.00,30.6,29.1,00.0,38.9,32.1,08.1,0000.0,0009.42,0003.38,0001.79
2023-05-06 03:41:00,,0824.9,5.00,0.00,30.6,29.1,00.0,38.9,32.1,08.1,0000.0,0009.45,0003.38,0001.79
2023-05-06 03:42:00,,0824.9,5.01,0.00,30.6,29.1,00.0,38.9,32.1,08.1,0000.0,0009.57,0003.43,0001.78
2023-05-06 03:43:00,,0825.0,5.01,0.00,30.6,29.1,00.0,38.9,32.1,08.1,0000.0,0009.27,0003.44,0001.78
2023-05-06 03:44:00,,0825.0,4.99,0.00,30.6,29.1,00.0,38.9,32.1,08.1,0000.0,0009.14,0003.44,0001.78
2023-05-06 03:45:00,,0825.0,5.00,0.00,30.6,29.1,00.0,39.0,32.1,08.2,0000.0,0009.12,0003.46,0001.79
2023-05-06 03:46:00,,0825.0,5.00,0.00,30.6,29.1,00.0,39.0,32.0,08.2,0000.0,0008.76,0003.49,0001.81
2023-05-06 03:47:00,,0825.0,5.00,0.00,30.6,29.1,00.0,39.0,32.0,08.2,0000.0,0008.58,0003.56,0001.82
2023-05-06 03:48:00,,0825.1,5.01,0.00,30.6,29.2,00.0,39.0,32.0,08.2,0000.0,0008.46,0003.55,0001.82
2023-05-06 03:49:00,,0825.1,5.01,0.00,30.6,29.2,00.0,39.0,32.1,08.2,0000.0,0007.96,0003.58,0001.83
2023-05-06 03:50:00,,0825.1,5.00,0.00,30.6,29.2,00.0,39.0,32.0,08.2,0000.0,0007.94,0003.58,0001.82
2023-05-06 03:51:00,,0825.1,5.00,0.00,30.7,29.2,00.0,39.0,32.1,08.7,0000.0,0008.07,0003.63,0001.81
2023-05-06 03:52:00,,0825.2,5.00,0.00,30.6,29.2,00.0,39.0,32.1,09.1,0000.0,0008.21,0003.63,0001.82
2023-05-06 03:53:00,,0825.2,5.00,0.00,30.6,29.1,00.0,39.0,32.0,09.3,0000.0,0008.32,0003.58,0001.83
2023-05-06 03:54:00,,0825.2,5.00,0.00,30.6,29.0,00.0,39.0,32.0,09.2,0000.0,0008.46,0003.57,0001.84
2023-05-06 03:55:00,,0825.2,4.99,0.00,30.5,28.9,00.0,39.0,32.0,09.2,0000.0,0009.18,0003.56,0001.85
2023-05-06 03:56:00,,0825.3,4.99,0.00,30.5,28.8,00.0,39.0,31.9,09.1,0000.0,0009.51,0003.58,0001.86
2023-05-06 03:57:00,,0825.2,4.99,0.00,30.5,28.7,00.0,39.0,31.9,09.1,0000.0,0009.84,0003.60,0001.88
2023-05-06 03:58:00,,0825.3,5.02,0.00,30.4,28.7,00.0,38.9,31.8,09.2,0000.0,0010.21,0003.57,0001.88
2023-05-06 03:59:00,,0825.2,5.01,0.00,30.4,28.6,00.0,38.9,31.7,09.1,0000.0,0010.28,0003.59,0001.89
